Location: Gad�tanya
(48.0500°N, 20.8500°E)
Time: 11:55:15
(UTC+00:00)

Cosmos 1844 Rocket - Pass Details

Date: 05 July 2020
Orbit: 826 x 843 km, 71.0° (Epoch: 14 August)

Event Time Altitude Azimuth Distance (km) Brightness Sun altitude
Rises 19:22:53 0° 332° (NNW) 3,377 7.6 -6.5°
Reaches altitude 10° 19:25:20 10° 333° (NNW) 2,439 6.6 -6.8°
Maximum altitude 19:30:56 84° 61° (ENE) 837 2.7 -7.4°
Drops below altitude 10° 19:36:30 10° 152° (SSE) 2,423 4.5 -8.0°
Enters shadow 19:36:44 - 152° (SSE) 2,509 4.5 -8.1°
